Weather History for Brownsville, TX

Change the Weather History Date:

Wednesday, February 13, 2013

  Actual Average Record
Temperature  
Mean Temperature 62 °F 64 °F  
Max Temperature 68 °F 73 °F 89 °F (1945)
Min Temperature 56 °F 54 °F 12 °F (1899)
Degree Days  
Heating Degree Days 3 4  
Month to date heating degree days 4 59  
Since 1 July heating degree days 260 458  
Cooling Degree Days 0 3  
Month to date cooling degree days 93 34  
Year to date cooling degree days 167 93  
Growing Degree Days 12 (Base 50)    
Moisture  
Dew Point 50 °F    
Average Humidity 68    
Maximum Humidity 90    
Minimum Humidity 45    
Precipitation  
Precipitation T in 0.05 in 1.37 in (1969)
Month to date precipitation 0.01 0.59  
Year to date precipitation 1.48 1.86  
Sea Level Pressure  
Sea Level Pressure 30.05 in    
Wind  
Wind Speed 10 mph (North)    
Max Wind Speed 18 mph    
Max Gust Speed 25 mph    
Visibility 10 miles    
Events      
T = Trace of Precipitation, MM = Missing Value Source: NWS Daily Summary

Daily Weather History Graph

Daily Weather History Graph

Search for Another Location

Airport:

Trip Planner

Search our weather history database for the weather conditions in past years. The results will help you decide how hot, cold, wet, or windy it might be!

Date:

Astronomy

Feb. 13, 2013 Rise Set
Actual Time 7:06 AM CST 6:21 PM CST
Civil Twilight 6:42 AM CST 6:45 PM CST
Nautical Twilight 6:15 AM CST 7:12 PM CST
Astronomical Twilight 5:48 AM CST 7:39 PM CST
Moon 9:03 AM CST (2/13) 9:55 PM CST (2/13)
Length of Visible Light 12h 02m
Length of Day
11h 15m
Waxing Crescent, 14% of the Moon is Illuminated
Feb 13
Waxing Crescent
Feb 17
First Quarter
Feb 25
Full
Mar 4
Last Quarter
Mar 11
New

Hourly Weather History & Observations

Time (CST) Temp. Dew Point Humidity Pressure Visibility Wind Dir Wind Speed Gust Speed Precip Events Conditions
12:53 AM 64.0 °F 59.0 °F 84% 29.96 in 10.0 mi NNW 8.1 mph - N/A   Scattered Clouds
1:53 AM 64.0 °F 59.0 °F 84% 29.96 in 10.0 mi North 4.6 mph - N/A   Overcast
2:53 AM 63.0 °F 59.0 °F 87% 29.96 in 10.0 mi NNW 9.2 mph - N/A   Clear
3:53 AM 63.0 °F 59.0 °F 87% 29.96 in 10.0 mi North 6.9 mph - N/A   Clear
4:53 AM 63.0 °F 59.0 °F 87% 29.97 in 10.0 mi North 10.4 mph - N/A   Mostly Cloudy
5:53 AM 63.0 °F 57.9 °F 84% 30.00 in 10.0 mi NNW 8.1 mph - N/A   Overcast
6:53 AM 63.0 °F 50.0 °F 63% 30.03 in 10.0 mi North 15.0 mph 20.7 mph N/A   Overcast
7:53 AM 63.0 °F 55.9 °F 78% 30.06 in 10.0 mi North 10.4 mph 18.4 mph N/A   Overcast
8:53 AM 62.1 °F 54.0 °F 75% 30.10 in 10.0 mi North 17.3 mph 25.3 mph N/A   Overcast
9:53 AM 63.0 °F 53.1 °F 70% 30.12 in 10.0 mi North 16.1 mph 25.3 mph N/A   Overcast
10:53 AM 64.0 °F 52.0 °F 65% 30.14 in 10.0 mi North 12.7 mph 20.7 mph N/A   Mostly Cloudy
11:53 AM 64.9 °F 46.0 °F 50% 30.13 in 10.0 mi NNE 15.0 mph 24.2 mph N/A   Overcast
12:53 PM 66.0 °F 45.0 °F 47% 30.09 in 10.0 mi NNE 11.5 mph 18.4 mph N/A   Mostly Cloudy
1:53 PM 66.9 °F 44.1 °F 44% 30.06 in 10.0 mi NNE 12.7 mph 20.7 mph N/A   Clear
2:53 PM 63.0 °F 44.1 °F 50% 30.04 in 10.0 mi North 12.7 mph 20.7 mph N/A   Clear
3:53 PM 61.0 °F 44.1 °F 54% 30.03 in 10.0 mi NNE 13.8 mph - N/A   Clear
4:53 PM 60.1 °F 44.1 °F 55% 30.04 in 10.0 mi North 12.7 mph - N/A   Scattered Clouds
5:53 PM 57.9 °F 45.0 °F 62% 30.03 in 10.0 mi NNE 12.7 mph 19.6 mph N/A   Clear
6:53 PM 57.9 °F 45.0 °F 62% 30.04 in 10.0 mi NNE 8.1 mph - N/A   Overcast
7:53 PM 57.0 °F 45.0 °F 64% 30.06 in 10.0 mi NNE 10.4 mph - N/A   Mostly Cloudy
8:53 PM 57.9 °F 46.0 °F 65% 30.10 in 10.0 mi North 4.6 mph - N/A   Mostly Cloudy
9:53 PM 57.9 °F 46.9 °F 67% 30.09 in 10.0 mi Calm Calm - 0.00 in   Mostly Cloudy
10:53 PM 55.9 °F 48.9 °F 77% 30.09 in 10.0 mi NNE 3.5 mph - N/A   Scattered Clouds
11:53 PM 55.9 °F 48.0 °F 75% 30.11 in 10.0 mi NW 3.5 mph - N/A   Clear